Time,TemperatureF,DewpointF,PressureIn,WindDirection,WindDirectionDegrees,WindSpeedMPH,WindSpeedGustMPH,Humidity,HourlyPrecipIn,Conditions,Clouds,dailyrainin,SoftwareType,DateUTC
2013-04-05 00:02:00,40.0,33.1,30.10,NNE,32,2.0,7.0,76,0.00,,CLR,0.00,VWS V14.01,2013-04-05 05:02:00,
2013-04-05 00:07:00,39.9,33.0,30.11,NNW,331,0.0,3.0,76,0.00,,CLR,0.00,VWS V14.01,2013-04-05 05:07:00,
2013-04-05 00:12:00,39.5,32.6,30.11,NNW,344,2.0,7.0,76,0.00,,CLR,0.00,VWS V14.01,2013-04-05 05:12:00,
2013-04-05 00:17:00,39.4,32.5,30.11,NNW,346,1.0,7.0,76,0.00,,CLR,0.00,VWS V14.01,2013-04-05 05:17:00,
2013-04-05 00:22:00,39.3,32.7,30.11,NW,319,1.0,7.0,77,0.00,,CLR,0.00,VWS V14.01,2013-04-05 05:22:00,
2013-04-05 00:27:00,39.2,32.6,30.11,NNW,346,3.0,7.0,77,0.00,,CLR,0.00,VWS V14.01,2013-04-05 05:27:00,
2013-04-05 00:32:00,39.0,32.1,30.11,NNE,13,1.0,7.0,76,0.00,,CLR,0.00,VWS V14.01,2013-04-05 05:32:00,
2013-04-05 00:37:00,38.9,32.0,30.11,North,5,1.0,7.0,76,0.00,,CLR,0.00,VWS V14.01,2013-04-05 05:37:00,
2013-04-05 00:42:00,38.7,31.8,30.11,NNE,12,0.0,7.0,76,0.00,,CLR,0.00,VWS V14.01,2013-04-05 05:42:00,
2013-04-05 00:47:00,38.3,31.4,30.11,NNE,12,1.0,7.0,76,0.00,,CLR,0.00,VWS V14.01,2013-04-05 05:47:00,
2013-04-05 00:52:00,37.9,31.4,30.11,North,351,2.0,7.0,77,0.00,,CLR,0.00,VWS V14.01,2013-04-05 05:52:00,
2013-04-05 00:57:00,37.6,31.4,30.11,NNW,336,1.0,7.0,78,0.00,,CLR,0.00,VWS V14.01,2013-04-05 05:57:00,
2013-04-05 01:02:00,37.3,31.1,30.11,NNW,335,2.0,7.0,78,0.00,,CLR,0.00,VWS V14.01,2013-04-05 06:02:00,
2013-04-05 01:07:00,37.0,31.1,30.12,NNW,335,2.0,3.0,79,0.00,,CLR,0.00,VWS V14.01,2013-04-05 06:07:00,
2013-04-05 01:12:00,36.8,31.2,30.12,NNW,341,2.0,4.0,80,0.00,,CLR,0.00,VWS V14.01,2013-04-05 06:12:00,
2013-04-05 01:17:00,36.9,31.3,30.12,NW,323,1.0,4.0,80,0.00,,CLR,0.00,VWS V14.01,2013-04-05 06:17:00,
2013-04-05 01:22:00,36.8,31.2,30.12,NW,324,2.0,5.0,80,0.00,,CLR,0.00,VWS V14.01,2013-04-05 06:22:00,
2013-04-05 01:27:00,36.8,31.2,30.12,North,355,1.0,5.0,80,0.00,,CLR,0.00,VWS V14.01,2013-04-05 06:27:00,
2013-04-05 01:32:00,36.7,31.1,30.13,NNW,333,2.0,6.0,80,0.00,,CLR,0.00,VWS V14.01,2013-04-05 06:32:00,
2013-04-05 01:37:00,36.5,30.9,30.13,NNW,333,2.0,6.0,80,0.00,,CLR,0.00,VWS V14.01,2013-04-05 06:37:00,
2013-04-05 01:42:00,36.4,30.8,30.13,NNW,340,4.0,6.0,80,0.00,,CLR,0.00,VWS V14.01,2013-04-05 06:42:00,
2013-04-05 01:47:00,36.2,30.6,30.13,North,355,1.0,6.0,80,0.00,,CLR,0.00,VWS V14.01,2013-04-05 06:47:00,
2013-04-05 01:53:00,36.1,30.8,30.13,NNW,342,2.0,6.0,81,0.00,,CLR,0.00,VWS V14.01,2013-04-05 06:53:00,
2013-04-05 01:58:00,35.9,30.6,30.13,NW,313,2.0,6.0,81,0.00,,CLR,0.00,VWS V14.01,2013-04-05 06:58:00,
2013-04-05 02:03:00,35.7,30.5,30.13,NNW,337,2.0,6.0,81,0.00,,CLR,0.00,VWS V14.01,2013-04-05 07:03:00,
2013-04-05 02:08:00,35.6,30.4,30.14,NNW,338,2.0,5.0,81,0.00,,CLR,0.00,VWS V14.01,2013-04-05 07:08:00,
2013-04-05 02:13:00,35.5,30.3,30.13,NNW,332,2.0,6.0,81,0.00,,CLR,0.00,VWS V14.01,2013-04-05 07:13:00,
2013-04-05 02:18:00,35.4,30.5,30.14,NNW,336,4.0,6.0,82,0.00,,CLR,0.00,VWS V14.01,2013-04-05 07:18:00,
2013-04-05 02:23:00,35.4,30.5,30.14,North,350,1.0,6.0,82,0.00,,CLR,0.00,VWS V14.01,2013-04-05 07:23:00,
2013-04-05 02:28:00,35.2,30.3,30.13,NW,323,0.0,6.0,82,0.00,,CLR,0.00,VWS V14.01,2013-04-05 07:28:00,
2013-04-05 02:33:00,35.0,29.8,30.13,NW,316,1.0,6.0,81,0.00,,CLR,0.00,VWS V14.01,2013-04-05 07:33:00,
2013-04-05 02:38:00,34.7,29.8,30.13,NNW,329,1.0,6.0,82,0.00,,CLR,0.00,VWS V14.01,2013-04-05 07:38:00,
2013-04-05 02:43:00,34.7,29.8,30.13,North,355,0.0,6.0,82,0.00,,CLR,0.00,VWS V14.01,2013-04-05 07:43:00,
2013-04-05 02:48:00,34.5,29.9,30.13,NNW,329,0.0,6.0,83,0.00,,CLR,0.00,VWS V14.01,2013-04-05 07:48:00,
2013-04-05 02:53:00,34.1,29.5,30.14,NW,326,0.0,6.0,83,0.00,,CLR,0.00,VWS V14.01,2013-04-05 07:53:00,
2013-04-05 02:58:00,34.2,29.9,30.14,NW,309,0.0,6.0,84,0.00,,CLR,0.00,VWS V14.01,2013-04-05 07:58:00,
2013-04-05 03:03:00,34.1,29.5,30.14,NW,319,3.0,6.0,83,0.00,,CLR,0.00,VWS V14.01,2013-04-05 08:03:00,
2013-04-05 03:08:00,33.7,29.4,30.14,NNW,329,2.0,3.0,84,0.00,,CLR,0.00,VWS V14.01,2013-04-05 08:08:00,
2013-04-05 03:13:00,33.3,29.3,30.14,NNW,331,2.0,4.0,85,0.00,,CLR,0.00,VWS V14.01,2013-04-05 08:13:00,
2013-04-05 03:18:00,33.2,29.5,30.14,NNW,337,1.0,4.0,86,0.00,,CLR,0.00,VWS V14.01,2013-04-05 08:18:00,
2013-04-05 03:23:00,33.2,29.5,30.14,NNW,337,1.0,4.0,86,0.00,,CLR,0.00,VWS V14.01,2013-04-05 08:23:00,
2013-04-05 03:28:00,33.2,29.5,30.14,NNW,337,0.0,4.0,86,0.00,,CLR,0.00,VWS V14.01,2013-04-05 08:28:00,
2013-04-05 03:33:00,33.0,29.3,30.14,NNW,337,0.0,4.0,86,0.00,,CLR,0.00,VWS V14.01,2013-04-05 08:33:00,
2013-04-05 03:38:00,33.3,29.6,30.14,NNW,337,0.0,4.0,86,0.00,,CLR,0.00,VWS V14.01,2013-04-05 08:38:00,
2013-04-05 03:43:00,33.0,29.3,30.14,NNW,337,0.0,4.0,86,0.00,,CLR,0.00,VWS V14.01,2013-04-05 08:43:00,
2013-04-05 03:48:00,32.9,29.2,30.15,NNW,337,0.0,4.0,86,0.00,,CLR,0.00,VWS V14.01,2013-04-05 08:48:00,
2013-04-05 03:53:00,32.8,29.1,30.15,NNW,338,0.0,4.0,86,0.00,,CLR,0.00,VWS V14.01,2013-04-05 08:53:00,
2013-04-05 03:58:00,32.8,29.4,30.15,NNW,336,0.0,4.0,87,0.00,,CLR,0.00,VWS V14.01,2013-04-05 08:58:00,
2013-04-05 04:03:00,32.7,29.3,30.15,NNW,336,0.0,4.0,87,0.00,,CLR,0.00,VWS V14.01,2013-04-05 09:03:00,
2013-04-05 04:08:00,32.5,29.1,30.15,NNW,336,0.0,0.0,87,0.00,,CLR,0.00,VWS V14.01,2013-04-05 09:08:00,
2013-04-05 04:13:00,32.7,29.3,30.15,NNW,336,0.0,0.0,87,0.00,,CLR,0.00,VWS V14.01,2013-04-05 09:13:00,
2013-04-05 04:18:00,32.6,28.9,30.16,NNW,336,0.0,0.0,86,0.00,,CLR,0.00,VWS V14.01,2013-04-05 09:18:00,
2013-04-05 04:23:00,32.3,28.9,30.16,NNW,336,0.0,1.0,87,0.00,,CLR,0.00,VWS V14.01,2013-04-05 09:23:00,
2013-04-05 04:28:00,32.3,28.9,30.16,NNW,336,0.0,1.0,87,0.00,,CLR,0.00,VWS V14.01,2013-04-05 09:28:00,
2013-04-05 04:33:00,32.2,28.8,30.16,NNW,336,0.0,1.0,87,0.00,,CLR,0.00,VWS V14.01,2013-04-05 09:33:00,
2013-04-05 04:38:00,32.0,28.6,30.16,NNW,341,0.0,1.0,87,0.00,,CLR,0.00,VWS V14.01,2013-04-05 09:38:00,
2013-04-05 04:43:00,32.1,28.7,30.16,North,5,1.0,2.0,87,0.00,,CLR,0.00,VWS V14.01,2013-04-05 09:43:00,
2013-04-05 04:48:00,32.1,28.7,30.16,North,5,0.0,2.0,87,0.00,,CLR,0.00,VWS V14.01,2013-04-05 09:48:00,
2013-04-05 04:53:00,32.0,28.6,30.16,NNE,15,0.0,3.0,87,0.00,,CLR,0.00,VWS V14.01,2013-04-05 09:53:00,
2013-04-05 04:58:00,32.1,28.7,30.16,NNE,21,3.0,3.0,87,0.00,,CLR,0.00,VWS V14.01,2013-04-05 09:58:00,
2013-04-05 05:03:00,31.9,28.5,30.16,NE,39,0.0,0.0,87,0.00,,CLR,0.00,VWS V14.01,2013-04-05 10:03:00,
2013-04-05 05:08:00,32.0,28.6,30.16,NE,34,0.0,2.0,87,0.00,,CLR,0.00,VWS V14.01,2013-04-05 10:08:00,
2013-04-05 05:13:00,32.0,28.6,30.17,NNE,24,0.0,2.0,87,0.00,,CLR,0.00,VWS V14.01,2013-04-05 10:13:00,
2013-04-05 05:18:00,32.1,28.7,30.17,NNW,332,0.0,3.0,87,0.00,,CLR,0.00,VWS V14.01,2013-04-05 10:18:00,
2013-04-05 05:23:00,32.2,28.8,30.17,NNW,331,0.0,3.0,87,0.00,,CLR,0.00,VWS V14.01,2013-04-05 10:23:00,
2013-04-05 05:28:00,32.3,28.9,30.17,NNW,331,0.0,3.0,87,0.00,,CLR,0.00,VWS V14.01,2013-04-05 10:28:00,
2013-04-05 05:34:00,32.4,29.0,30.17,NNW,331,0.0,3.0,87,0.00,,CLR,0.00,VWS V14.01,2013-04-05 10:34:00,
2013-04-05 05:39:00,32.2,28.5,30.17,NNW,331,0.0,3.0,86,0.00,,CLR,0.00,VWS V14.01,2013-04-05 10:39:00,
2013-04-05 05:44:00,31.6,27.9,30.18,NNW,331,0.0,3.0,86,0.00,,CLR,0.00,VWS V14.01,2013-04-05 10:44:00,
2013-04-05 05:49:00,31.5,28.1,30.17,NNW,332,1.0,3.0,87,0.00,,CLR,0.00,VWS V14.01,2013-04-05 10:49:00,
2013-04-05 05:54:00,31.4,28.0,30.18,NNW,332,0.0,3.0,87,0.00,,CLR,0.00,VWS V14.01,2013-04-05 10:54:00,
2013-04-05 05:59:00,31.2,27.8,30.18,NNW,331,0.0,3.0,87,0.00,,CLR,0.00,VWS V14.01,2013-04-05 10:59:00,
2013-04-05 06:04:00,31.0,27.9,30.18,NNW,331,0.0,0.0,88,0.00,,SCT110,0.00,VWS V14.01,2013-04-05 11:04:00,
2013-04-05 06:09:00,31.0,27.9,30.18,NNW,332,0.0,1.0,88,0.00,,SCT110,0.00,VWS V14.01,2013-04-05 11:09:00,
2013-04-05 06:14:00,30.8,27.7,30.18,NNW,332,0.0,1.0,88,0.00,,SCT110,0.00,VWS V14.01,2013-04-05 11:14:00,
2013-04-05 06:19:00,30.6,27.5,30.18,NNW,332,0.0,1.0,88,0.00,,SCT110,0.00,VWS V14.01,2013-04-05 11:19:00,
2013-04-05 06:24:00,30.5,27.6,30.18,NNW,332,0.0,1.0,89,0.00,,SCT110,0.00,VWS V14.01,2013-04-05 11:24:00,
2013-04-05 06:29:00,30.5,27.4,30.18,NE,34,0.0,2.0,88,0.00,,SCT110,0.00,VWS V14.01,2013-04-05 11:29:00,
2013-04-05 06:35:00,30.8,28.0,30.18,NNE,22,0.0,2.0,89,0.00,,SCT110,0.00,VWS V14.01,2013-04-05 11:35:00,
2013-04-05 06:40:00,30.8,27.7,30.19,NNE,22,0.0,2.0,88,0.00,,SCT110,0.00,VWS V14.01,2013-04-05 11:40:00,
2013-04-05 06:45:00,30.6,27.5,30.19,NNE,22,0.0,2.0,88,0.00,,SCT110,0.00,VWS V14.01,2013-04-05 11:45:00,
2013-04-05 06:50:00,30.6,27.5,30.19,NNE,22,0.0,2.0,88,0.00,,SCT110,0.00,VWS V14.01,2013-04-05 11:50:00,
2013-04-05 06:55:00,31.1,28.0,30.19,NNE,22,0.0,2.0,88,0.00,,SCT110,0.00,VWS V14.01,2013-04-05 11:55:00,
2013-04-05 07:00:00,31.3,27.9,30.19,NNE,22,0.0,2.0,87,0.00,,SCT110,0.00,VWS V14.01,2013-04-05 12:00:00,
2013-04-05 07:05:00,31.4,28.0,30.19,NNE,22,0.0,0.0,87,0.00,,BKN110,0.00,VWS V14.01,2013-04-05 12:05:00,
2013-04-05 07:10:00,31.6,28.2,30.19,NNE,22,0.0,1.0,87,0.00,,BKN110,0.00,VWS V14.01,2013-04-05 12:10:00,
2013-04-05 07:15:00,31.7,28.3,30.19,NNE,22,0.0,1.0,87,0.00,,BKN110,0.00,VWS V14.01,2013-04-05 12:15:00,
2013-04-05 07:20:00,31.7,28.3,30.19,NNE,22,0.0,1.0,87,0.00,,BKN110,0.00,VWS V14.01,2013-04-05 12:20:00,
2013-04-05 07:25:00,31.9,28.5,30.20,NNE,22,0.0,2.0,87,0.00,,BKN110,0.00,VWS V14.01,2013-04-05 12:25:00,
2013-04-05 07:30:00,32.2,28.5,30.20,NNE,22,0.0,2.0,86,0.00,,BKN110,0.00,VWS V14.01,2013-04-05 12:30:00,
2013-04-05 07:35:00,32.6,28.6,30.20,North,11,0.0,2.0,85,0.00,,BKN110,0.00,VWS V14.01,2013-04-05 12:35:00,
2013-04-05 07:40:00,33.1,29.1,30.20,NE,42,0.0,2.0,85,0.00,,BKN110,0.00,VWS V14.01,2013-04-05 12:40:00,
2013-04-05 07:45:00,33.4,29.1,30.20,ENE,71,2.0,2.0,84,0.00,,BKN110,0.00,VWS V14.01,2013-04-05 12:45:00,
2013-04-05 07:50:00,33.7,29.1,30.20,NNE,14,0.0,4.0,83,0.00,,BKN110,0.00,VWS V14.01,2013-04-05 12:50:00,
2013-04-05 07:55:00,33.9,29.0,30.20,ENE,63,0.0,5.0,82,0.00,,BKN110,0.00,VWS V14.01,2013-04-05 12:55:00,
2013-04-05 08:00:00,34.2,29.0,30.20,NNE,14,5.0,5.0,81,0.00,,BKN100,0.00,VWS V14.01,2013-04-05 13:00:00,
2013-04-05 08:05:00,34.8,29.0,30.20,NE,34,0.0,4.0,79,0.00,,BKN100,0.00,VWS V14.01,2013-04-05 13:05:00,
2013-04-05 08:10:00,35.3,29.1,30.20,ENE,67,3.0,4.0,78,0.00,,BKN100,0.00,VWS V14.01,2013-04-05 13:10:00,
2013-04-05 08:15:00,36.0,29.5,30.21,NE,46,5.0,7.0,77,0.00,,BKN100,0.00,VWS V14.01,2013-04-05 13:15:00,
2013-04-05 08:20:00,36.3,28.8,30.21,NE,56,0.0,7.0,74,0.00,,BKN100,0.00,VWS V14.01,2013-04-05 13:20:00,
2013-04-05 08:25:00,37.0,29.2,30.21,East,80,3.0,7.0,73,0.00,,BKN100,0.00,VWS V14.01,2013-04-05 13:25:00,
2013-04-05 08:30:00,37.4,29.2,30.22,ENE,61,0.0,8.0,72,0.00,,BKN100,0.00,VWS V14.01,2013-04-05 13:30:00,
2013-04-05 08:36:00,37.8,29.3,30.22,North,355,1.0,8.0,71,0.00,,BKN100,0.00,VWS V14.01,2013-04-05 13:36:00,
2013-04-05 08:41:00,38.0,29.5,30.22,SE,124,5.0,8.0,71,0.00,,BKN100,0.00,VWS V14.01,2013-04-05 13:41:00,
2013-04-05 08:46:00,38.2,28.9,30.21,NE,39,0.0,8.0,69,0.00,,BKN100,0.00,VWS V14.01,2013-04-05 13:46:00,
2013-04-05 08:51:00,39.1,29.1,30.21,NE,45,1.0,8.0,67,0.00,,BKN100,0.00,VWS V14.01,2013-04-05 13:51:00,
2013-04-05 08:56:00,39.6,28.8,30.21,East,88,3.0,8.0,65,0.00,,BKN100,0.00,VWS V14.01,2013-04-05 13:56:00,
2013-04-05 09:01:00,40.0,28.4,30.21,ENE,76,1.0,8.0,63,0.00,,CLR,0.00,VWS V14.01,2013-04-05 14:01:00,
2013-04-05 09:06:00,40.5,28.5,30.21,NNE,28,5.0,7.0,62,0.00,,CLR,0.00,VWS V14.01,2013-04-05 14:06:00,
2013-04-05 09:12:00,41.0,28.6,30.21,East,94,3.0,10.0,61,0.00,,CLR,0.00,VWS V14.01,2013-04-05 14:12:00,
2013-04-05 09:17:00,41.0,28.6,30.21,ESE,113,3.0,10.0,61,0.00,,CLR,0.00,VWS V14.01,2013-04-05 14:17:00,
2013-04-05 09:22:00,41.1,28.3,30.20,ENE,72,4.0,10.0,60,0.00,,CLR,0.00,VWS V14.01,2013-04-05 14:22:00,
2013-04-05 09:27:00,41.5,28.3,30.20,ESE,105,7.0,12.0,59,0.00,,CLR,0.00,VWS V14.01,2013-04-05 14:27:00,
2013-04-05 09:32:00,41.9,28.6,30.20,East,88,3.0,12.0,59,0.00,,CLR,0.00,VWS V14.01,2013-04-05 14:32:00,
2013-04-05 09:37:00,42.0,28.7,30.20,North,5,5.0,12.0,59,0.00,,CLR,0.00,VWS V14.01,2013-04-05 14:37:00,
2013-04-05 09:42:00,42.7,29.0,30.20,ENE,78,1.0,12.0,58,0.00,,CLR,0.00,VWS V14.01,2013-04-05 14:42:00,
2013-04-05 09:47:00,43.3,29.1,30.20,SSE,155,4.0,12.0,57,0.00,,CLR,0.00,VWS V14.01,2013-04-05 14:47:00,
2013-04-05 09:52:00,43.5,28.9,30.19,ESE,113,4.0,12.0,56,0.00,,CLR,0.00,VWS V14.01,2013-04-05 14:52:00,
2013-04-05 09:57:00,43.7,27.7,30.19,ESE,105,9.0,15.0,53,0.00,,CLR,0.00,VWS V14.01,2013-04-05 14:57:00,
2013-04-05 10:02:00,43.7,28.6,30.20,SE,131,5.0,15.0,55,0.00,,CLR,0.00,VWS V14.01,2013-04-05 15:02:00,
2013-04-05 10:07:00,43.9,28.4,30.19,SSE,151,6.0,10.0,54,0.00,,CLR,0.00,VWS V14.01,2013-04-05 15:07:00,
2013-04-05 10:12:00,44.5,28.9,30.19,SE,146,0.0,10.0,54,0.00,,CLR,0.00,VWS V14.01,2013-04-05 15:12:00,
2013-04-05 10:17:00,44.9,28.8,30.19,ESE,123,4.0,10.0,53,0.00,,CLR,0.00,VWS V14.01,2013-04-05 15:17:00,
2013-04-05 10:23:00,45.1,29.0,30.19,SE,125,5.0,12.0,53,0.00,,CLR,0.00,VWS V14.01,2013-04-05 15:23:00,
2013-04-05 10:28:00,45.1,29.0,30.19,SSE,168,8.0,12.0,53,0.00,,CLR,0.00,VWS V14.01,2013-04-05 15:28:00,
2013-04-05 10:33:00,45.7,30.0,30.19,ESE,113,8.0,12.0,54,0.00,,CLR,0.00,VWS V14.01,2013-04-05 15:33:00,
2013-04-05 10:38:00,46.0,29.4,30.19,East,96,3.0,12.0,52,0.00,,CLR,0.00,VWS V14.01,2013-04-05 15:38:00,
2013-04-05 10:43:00,46.7,30.0,30.19,ENE,61,3.0,12.0,52,0.00,,CLR,0.00,VWS V14.01,2013-04-05 15:43:00,
2013-04-05 10:48:00,47.2,30.0,30.19,ESE,107,4.0,12.0,51,0.00,,CLR,0.00,VWS V14.01,2013-04-05 15:48:00,
2013-04-05 10:53:00,47.0,29.8,30.19,ENE,72,4.0,13.0,51,0.00,,CLR,0.00,VWS V14.01,2013-04-05 15:53:00,
2013-04-05 10:58:00,46.5,29.8,30.18,ESE,116,1.0,13.0,52,0.00,,CLR,0.00,VWS V14.01,2013-04-05 15:58:00,
2013-04-05 11:03:00,47.5,30.3,30.18,SE,128,5.0,14.0,51,0.00,,CLR,0.00,VWS V14.01,2013-04-05 16:03:00,
2013-04-05 11:08:00,47.5,30.3,30.18,East,98,5.0,13.0,51,0.00,,CLR,0.00,VWS V14.01,2013-04-05 16:08:00,
2013-04-05 11:13:00,47.8,31.0,30.17,ESE,110,9.0,13.0,52,0.00,,CLR,0.00,VWS V14.01,2013-04-05 16:13:00,
2013-04-05 11:18:00,47.8,31.5,30.17,SE,144,6.0,13.0,53,0.00,,CLR,0.00,VWS V14.01,2013-04-05 16:18:00,
2013-04-05 11:23:00,48.2,31.4,30.17,ESE,114,2.0,13.0,52,0.00,,CLR,0.00,VWS V14.01,2013-04-05 16:23:00,
2013-04-05 11:28:00,48.5,30.7,30.18,ESE,106,5.0,13.0,50,0.00,,CLR,0.00,VWS V14.01,2013-04-05 16:28:00,
2013-04-05 11:33:00,49.6,31.2,30.17,East,92,6.0,13.0,49,0.00,,CLR,0.00,VWS V14.01,2013-04-05 16:33:00,
2013-04-05 11:38:00,48.4,30.6,30.18,ESE,105,8.0,13.0,50,0.00,,CLR,0.00,VWS V14.01,2013-04-05 16:38:00,
2013-04-05 11:43:00,48.0,30.8,30.17,SE,130,5.0,13.0,51,0.00,,CLR,0.00,VWS V14.01,2013-04-05 16:43:00,
2013-04-05 11:48:00,48.8,31.5,30.17,SSE,151,4.0,13.0,51,0.00,,CLR,0.00,VWS V14.01,2013-04-05 16:48:00,
2013-04-05 11:53:00,48.8,30.5,30.17,ESE,113,7.0,13.0,49,0.00,,CLR,0.00,VWS V14.01,2013-04-05 16:53:00,
2013-04-05 11:58:00,49.7,31.3,30.17,SE,140,5.0,14.0,49,0.00,,CLR,0.00,VWS V14.01,2013-04-05 16:58:00,
2013-04-05 12:03:00,49.8,29.3,30.17,SSE,150,9.0,14.0,45,0.00,,CLR,0.00,VWS V14.01,2013-04-05 17:03:00,
2013-04-05 12:08:00,49.6,29.1,30.17,SE,138,5.0,10.0,45,0.00,,CLR,0.00,VWS V14.01,2013-04-05 17:08:00,
2013-04-05 12:13:00,49.4,29.5,30.17,SSW,202,1.0,10.0,46,0.00,,CLR,0.00,VWS V14.01,2013-04-05 17:13:00,
2013-04-05 12:18:00,49.1,29.2,30.17,SSW,195,10.0,12.0,46,0.00,,CLR,0.00,VWS V14.01,2013-04-05 17:18:00,
2013-04-05 12:23:00,50.0,29.5,30.17,SE,142,0.0,12.0,45,0.00,,CLR,0.00,VWS V14.01,2013-04-05 17:23:00,
2013-04-05 12:29:00,49.6,29.7,30.17,SE,137,4.0,12.0,46,0.00,,CLR,0.00,VWS V14.01,2013-04-05 17:29:00,
2013-04-05 12:34:00,50.0,29.5,30.17,SE,146,7.0,12.0,45,0.00,,CLR,0.00,VWS V14.01,2013-04-05 17:34:00,
2013-04-05 12:39:00,50.3,30.9,30.17,East,98,7.0,12.0,47,0.00,,CLR,0.00,VWS V14.01,2013-04-05 17:39:00,
2013-04-05 12:44:00,50.6,29.5,30.17,SE,132,4.0,12.0,44,0.00,,CLR,0.00,VWS V14.01,2013-04-05 17:44:00,
2013-04-05 12:49:00,50.5,30.0,30.17,SE,145,8.0,12.0,45,0.00,,CLR,0.00,VWS V14.01,2013-04-05 17:49:00,
2013-04-05 12:54:00,50.5,29.4,30.17,SE,140,3.0,12.0,44,0.00,,CLR,0.00,VWS V14.01,2013-04-05 17:54:00,
2013-04-05 12:59:00,50.2,29.7,30.17,ESE,123,4.0,12.0,45,0.00,,CLR,0.00,VWS V14.01,2013-04-05 17:59:00,
2013-04-05 13:05:00,49.7,29.2,30.16,SSE,148,6.0,6.0,45,0.00,,OVC095,0.00,VWS V14.01,2013-04-05 18:05:00,
2013-04-05 13:10:00,49.1,29.2,30.16,SSW,204,1.0,7.0,46,0.00,,OVC095,0.00,VWS V14.01,2013-04-05 18:10:00,
2013-04-05 13:15:00,49.2,29.3,30.16,SE,141,3.0,7.0,46,0.00,,OVC095,0.00,VWS V14.01,2013-04-05 18:15:00,
2013-04-05 13:20:00,49.0,29.7,30.16,SE,134,1.0,7.0,47,0.00,,OVC095,0.00,VWS V14.01,2013-04-05 18:20:00,
2013-04-05 13:25:00,49.2,29.3,30.15,East,99,3.0,8.0,46,0.00,,OVC095,0.00,VWS V14.01,2013-04-05 18:25:00,
2013-04-05 13:30:00,49.6,30.2,30.15,East,85,6.0,8.0,47,0.00,,OVC095,0.00,VWS V14.01,2013-04-05 18:30:00,
2013-04-05 13:35:00,49.9,30.5,30.15,SE,132,2.0,8.0,47,0.00,,OVC095,0.00,VWS V14.01,2013-04-05 18:35:00,
2013-04-05 13:40:00,50.4,29.9,30.14,SE,131,5.0,11.0,45,0.00,,OVC095,0.00,VWS V14.01,2013-04-05 18:40:00,
2013-04-05 13:45:00,50.2,29.7,30.14,ESE,123,5.0,11.0,45,0.00,,OVC095,0.00,VWS V14.01,2013-04-05 18:45:00,
2013-04-05 13:50:00,50.1,30.1,30.14,SE,132,8.0,11.0,46,0.00,,OVC095,0.00,VWS V14.01,2013-04-05 18:50:00,
2013-04-05 13:55:00,50.4,29.9,30.13,SSE,157,3.0,11.0,45,0.00,,OVC095,0.00,VWS V14.01,2013-04-05 18:55:00,
2013-04-05 14:00:00,50.3,29.8,30.13,SE,130,2.0,11.0,45,0.00,,OVC095,0.00,VWS V14.01,2013-04-05 19:00:00,
2013-04-05 14:05:00,50.6,30.6,30.13,SE,135,4.0,8.0,46,0.00,,OVC100,0.00,VWS V14.01,2013-04-05 19:05:00,
2013-04-05 14:10:00,51.3,30.7,30.12,South,172,7.0,9.0,45,0.00,,OVC100,0.00,VWS V14.01,2013-04-05 19:10:00,
2013-04-05 14:15:00,51.7,29.9,30.12,ESE,119,3.0,10.0,43,0.00,,OVC100,0.00,VWS V14.01,2013-04-05 19:15:00,
2013-04-05 14:20:00,51.9,30.1,30.12,East,92,5.0,14.0,43,0.00,,OVC100,0.00,VWS V14.01,2013-04-05 19:20:00,
2013-04-05 14:25:00,51.5,30.3,30.11,SSE,154,2.0,14.0,44,0.00,,OVC100,0.00,VWS V14.01,2013-04-05 19:25:00,
2013-04-05 14:30:00,51.1,30.0,30.11,SSE,158,4.0,14.0,44,0.00,,OVC100,0.00,VWS V14.01,2013-04-05 19:30:00,
2013-04-05 14:35:00,50.8,29.7,30.11,SE,128,2.0,14.0,44,0.00,,OVC100,0.00,VWS V14.01,2013-04-05 19:35:00,
2013-04-05 14:40:00,50.8,30.2,30.11,SE,132,6.0,14.0,45,0.00,,OVC100,0.00,VWS V14.01,2013-04-05 19:40:00,
2013-04-05 14:45:00,51.0,30.4,30.11,SSE,157,4.0,14.0,45,0.00,,OVC100,0.00,VWS V14.01,2013-04-05 19:45:00,
2013-04-05 14:50:00,51.1,30.5,30.11,East,98,2.0,14.0,45,0.00,,OVC100,0.00,VWS V14.01,2013-04-05 19:50:00,
2013-04-05 14:55:00,51.2,31.1,30.10,East,98,5.0,14.0,46,0.00,,OVC100,0.00,VWS V14.01,2013-04-05 19:55:00,
2013-04-05 15:00:00,51.1,31.1,30.10,ESE,117,7.0,14.0,46,0.00,,OVC100,0.00,VWS V14.01,2013-04-05 20:00:00,
2013-04-05 15:05:00,50.8,30.2,30.10,ESE,105,5.0,9.0,45,0.00,,OVC075,0.00,VWS V14.01,2013-04-05 20:05:00,
2013-04-05 15:10:00,50.6,30.1,30.10,East,88,2.0,9.0,45,0.00,,OVC075,0.00,VWS V14.01,2013-04-05 20:10:00,
2013-04-05 15:15:00,50.8,30.8,30.10,East,82,1.0,9.0,46,0.00,,OVC075,0.00,VWS V14.01,2013-04-05 20:15:00,
2013-04-05 15:20:00,51.0,31.5,30.09,SE,144,2.0,9.0,47,0.00,,OVC075,0.00,VWS V14.01,2013-04-05 20:20:00,
2013-04-05 15:25:00,51.1,31.1,30.09,ESE,123,7.0,9.0,46,0.00,,OVC075,0.00,VWS V14.01,2013-04-05 20:25:00,
2013-04-05 15:30:00,51.1,31.1,30.09,East,92,5.0,10.0,46,0.00,,OVC075,0.00,VWS V14.01,2013-04-05 20:30:00,
2013-04-05 15:35:00,51.4,30.2,30.08,East,92,5.0,11.0,44,0.00,,OVC075,0.00,VWS V14.01,2013-04-05 20:35:00,
2013-04-05 15:40:00,51.3,30.7,30.08,East,98,13.0,13.0,45,0.00,,OVC075,0.00,VWS V14.01,2013-04-05 20:40:00,
2013-04-05 15:45:00,51.5,30.3,30.08,SE,143,5.0,13.0,44,0.00,,OVC075,0.00,VWS V14.01,2013-04-05 20:45:00,
2013-04-05 15:51:00,51.5,30.3,30.07,ESE,120,3.0,13.0,44,0.00,,OVC075,0.00,VWS V14.01,2013-04-05 20:51:00,
2013-04-05 15:56:00,51.5,30.9,30.07,ESE,103,3.0,13.0,45,0.00,,OVC075,0.00,VWS V14.01,2013-04-05 20:56:00,
2013-04-05 16:01:00,51.8,31.1,30.06,SE,128,2.0,13.0,45,0.00,,SCT095,0.00,VWS V14.01,2013-04-05 21:01:00,
2013-04-05 16:06:00,51.8,31.1,30.06,East,101,3.0,9.0,45,0.00,,SCT095,0.00,VWS V14.01,2013-04-05 21:06:00,
2013-04-05 16:11:00,51.6,31.0,30.05,SSE,148,2.0,9.0,45,0.00,,SCT095,0.00,VWS V14.01,2013-04-05 21:11:00,
2013-04-05 16:16:00,51.6,31.0,30.05,SSE,148,5.0,11.0,45,0.00,,SCT095,0.00,VWS V14.01,2013-04-05 21:16:00,
2013-04-05 16:21:00,51.7,31.1,30.05,SE,136,2.0,11.0,45,0.00,,SCT095,0.00,VWS V14.01,2013-04-05 21:21:00,
2013-04-05 16:26:00,51.5,30.3,30.05,SSE,163,5.0,15.0,44,0.00,,SCT095,0.00,VWS V14.01,2013-04-05 21:26:00,
2013-04-05 16:31:00,51.4,31.3,30.05,SE,138,8.0,15.0,46,0.00,,SCT095,0.00,VWS V14.01,2013-04-05 21:31:00,
2013-04-05 16:37:00,51.3,30.1,30.05,ESE,115,1.0,15.0,44,0.00,,SCT095,0.00,VWS V14.01,2013-04-05 21:37:00,
2013-04-05 16:42:00,51.4,31.3,30.05,ESE,118,4.0,15.0,46,0.00,,SCT095,0.00,VWS V14.01,2013-04-05 21:42:00,
2013-04-05 16:47:00,51.4,31.3,30.05,SSE,167,6.0,15.0,46,0.00,,SCT095,0.00,VWS V14.01,2013-04-05 21:47:00,
2013-04-05 16:52:00,51.4,30.8,30.05,South,169,4.0,15.0,45,0.00,,SCT095,0.00,VWS V14.01,2013-04-05 21:52:00,
2013-04-05 16:57:00,51.3,31.2,30.04,SE,132,5.0,15.0,46,0.00,,SCT095,0.00,VWS V14.01,2013-04-05 21:57:00,
2013-04-05 17:02:00,51.3,31.2,30.04,ESE,113,8.0,15.0,46,0.00,,FEW120,0.00,VWS V14.01,2013-04-05 22:02:00,
2013-04-05 17:07:00,51.3,30.7,30.04,SE,126,5.0,12.0,45,0.00,,FEW120,0.00,VWS V14.01,2013-04-05 22:07:00,
2013-04-05 17:12:00,51.2,31.1,30.03,SE,141,4.0,12.0,46,0.00,,FEW120,0.00,VWS V14.01,2013-04-05 22:12:00,
2013-04-05 17:17:00,51.4,30.8,30.03,East,85,6.0,12.0,45,0.00,,FEW120,0.00,VWS V14.01,2013-04-05 22:17:00,
2013-04-05 17:22:00,51.6,32.0,30.03,East,94,2.0,12.0,47,0.00,,FEW120,0.00,VWS V14.01,2013-04-05 22:22:00,
2013-04-05 17:27:00,51.7,31.6,30.03,ESE,119,5.0,12.0,46,0.00,,FEW120,0.00,VWS V14.01,2013-04-05 22:27:00,
2013-04-05 17:32:00,51.9,31.8,30.03,ESE,117,5.0,12.0,46,0.00,,FEW120,0.00,VWS V14.01,2013-04-05 22:32:00,
2013-04-05 17:37:00,52.0,30.8,30.03,SE,146,9.0,12.0,44,0.00,,FEW120,0.00,VWS V14.01,2013-04-05 22:37:00,
2013-04-05 17:42:00,52.2,31.0,30.03,SE,131,6.0,12.0,44,0.00,,FEW120,0.00,VWS V14.01,2013-04-05 22:42:00,
2013-04-05 17:47:00,52.3,32.2,30.03,SE,142,2.0,12.0,46,0.00,,FEW120,0.00,VWS V14.01,2013-04-05 22:47:00,
2013-04-05 17:52:00,52.2,31.5,30.02,SE,126,9.0,12.0,45,0.00,,FEW120,0.00,VWS V14.01,2013-04-05 22:52:00,
2013-04-05 17:57:00,51.9,31.8,30.01,SE,129,4.0,12.0,46,0.00,,FEW120,0.00,VWS V14.01,2013-04-05 22:57:00,
2013-04-05 18:02:00,51.8,31.1,30.00,ESE,103,7.0,12.0,45,0.00,,CLR,0.00,VWS V14.01,2013-04-05 23:02:00,
2013-04-05 18:07:00,51.6,30.4,30.01,ESE,112,3.0,10.0,44,0.00,,CLR,0.00,VWS V14.01,2013-04-05 23:07:00,
2013-04-05 18:12:00,51.6,30.4,30.02,ESE,103,2.0,14.0,44,0.00,,CLR,0.00,VWS V14.01,2013-04-05 23:12:00,
2013-04-05 18:17:00,51.5,30.9,30.01,East,84,3.0,14.0,45,0.00,,CLR,0.00,VWS V14.01,2013-04-05 23:17:00,
2013-04-05 18:22:00,51.1,31.6,30.00,ESE,112,3.0,14.0,47,0.00,,CLR,0.00,VWS V14.01,2013-04-05 23:22:00,
2013-04-05 18:27:00,51.0,31.5,30.00,ENE,78,2.0,14.0,47,0.00,,CLR,0.00,VWS V14.01,2013-04-05 23:27:00,
2013-04-05 18:32:00,50.8,31.3,30.00,ESE,107,9.0,14.0,47,0.00,,CLR,0.00,VWS V14.01,2013-04-05 23:32:00,
2013-04-05 18:37:00,50.8,30.8,30.01,ENE,61,1.0,14.0,46,0.00,,CLR,0.00,VWS V14.01,2013-04-05 23:37:00,
2013-04-05 18:42:00,50.9,30.9,30.02,East,101,3.0,14.0,46,0.00,,CLR,0.00,VWS V14.01,2013-04-05 23:42:00,
2013-04-05 18:47:00,50.7,30.7,30.02,East,85,6.0,14.0,46,0.00,,CLR,0.00,VWS V14.01,2013-04-05 23:47:00,
2013-04-05 18:52:00,50.7,31.2,30.01,East,93,8.0,14.0,47,0.00,,CLR,0.00,VWS V14.01,2013-04-05 23:52:00,
2013-04-05 18:57:00,50.4,31.5,30.00,East,80,8.0,14.0,48,0.00,,CLR,0.00,VWS V14.01,2013-04-05 23:57:00,
2013-04-05 19:02:00,50.1,31.2,30.00,SE,132,4.0,14.0,48,0.00,,CLR,0.00,VWS V14.01,2013-04-06 00:02:00,
2013-04-05 19:07:00,50.1,31.2,29.99,ESE,111,8.0,11.0,48,0.00,,CLR,0.00,VWS V14.01,2013-04-06 00:07:00,
2013-04-05 19:13:00,49.9,31.5,29.98,East,99,10.0,13.0,49,0.00,,CLR,0.00,VWS V14.01,2013-04-06 00:13:00,
2013-04-05 19:18:00,49.7,30.8,29.98,ENE,57,1.0,16.0,48,0.00,,CLR,0.00,VWS V14.01,2013-04-06 00:18:00,
2013-04-05 19:23:00,49.5,31.1,29.98,ENE,63,3.0,16.0,49,0.00,,CLR,0.00,VWS V14.01,2013-04-06 00:23:00,
2013-04-05 19:28:00,49.2,31.4,29.98,East,92,6.0,16.0,50,0.00,,CLR,0.00,VWS V14.01,2013-04-06 00:28:00,
2013-04-05 19:33:00,49.0,31.7,29.98,ESE,117,1.0,16.0,51,0.00,,CLR,0.00,VWS V14.01,2013-04-06 00:33:00,
2013-04-05 19:38:00,48.8,31.5,29.98,East,82,6.0,16.0,51,0.00,,CLR,0.00,VWS V14.01,2013-04-06 00:38:00,
2013-04-05 19:43:00,48.8,31.5,29.97,SE,138,4.0,16.0,51,0.00,,CLR,0.00,VWS V14.01,2013-04-06 00:43:00,
2013-04-05 19:48:00,48.6,31.3,29.97,ESE,104,4.0,16.0,51,0.00,,CLR,0.00,VWS V14.01,2013-04-06 00:48:00,
2013-04-05 19:53:00,48.4,31.6,29.97,SE,132,5.0,16.0,52,0.00,,CLR,0.00,VWS V14.01,2013-04-06 00:53:00,
2013-04-05 19:58:00,48.2,31.9,29.97,ESE,117,4.0,16.0,53,0.00,,CLR,0.00,VWS V14.01,2013-04-06 00:58:00,
2013-04-05 20:03:00,48.1,31.8,29.96,ENE,77,4.0,16.0,53,0.00,,CLR,0.00,VWS V14.01,2013-04-06 01:03:00,
2013-04-05 20:08:00,47.8,32.0,29.96,SE,135,4.0,14.0,54,0.00,,CLR,0.00,VWS V14.01,2013-04-06 01:08:00,
2013-04-05 20:13:00,47.9,32.1,29.96,SE,134,2.0,16.0,54,0.00,,CLR,0.00,VWS V14.01,2013-04-06 01:13:00,
2013-04-05 20:18:00,47.7,31.9,29.95,SE,132,4.0,16.0,54,0.00,,CLR,0.00,VWS V14.01,2013-04-06 01:18:00,
2013-04-05 20:23:00,47.5,31.7,29.96,East,91,9.0,16.0,54,0.00,,CLR,0.00,VWS V14.01,2013-04-06 01:23:00,
2013-04-05 20:28:00,47.6,31.3,29.96,ENE,67,3.0,16.0,53,0.00,,CLR,0.00,VWS V14.01,2013-04-06 01:28:00,
2013-04-05 20:33:00,47.5,31.7,29.96,SE,138,6.0,16.0,54,0.00,,CLR,0.00,VWS V14.01,2013-04-06 01:33:00,
2013-04-05 20:38:00,47.5,31.7,29.96,ESE,105,11.0,16.0,54,0.00,,CLR,0.00,VWS V14.01,2013-04-06 01:38:00,
2013-04-05 20:43:00,47.4,31.6,29.96,ESE,119,2.0,16.0,54,0.00,,CLR,0.00,VWS V14.01,2013-04-06 01:43:00,
2013-04-05 20:48:00,47.3,31.5,29.95,SE,124,8.0,17.0,54,0.00,,CLR,0.00,VWS V14.01,2013-04-06 01:48:00,
2013-04-05 20:53:00,47.1,31.8,29.96,SE,125,7.0,17.0,55,0.00,,CLR,0.00,VWS V14.01,2013-04-06 01:53:00,
2013-04-05 20:58:00,46.8,32.0,29.96,ESE,109,15.0,17.0,56,0.00,,CLR,0.00,VWS V14.01,2013-04-06 01:58:00,
2013-04-05 21:03:00,46.6,32.2,29.96,ESE,105,9.0,10.0,57,0.00,,CLR,0.00,VWS V14.01,2013-04-06 02:03:00,
2013-04-05 21:08:00,46.4,32.0,29.97,ESE,112,9.0,12.0,57,0.00,,CLR,0.00,VWS V14.01,2013-04-06 02:08:00,
2013-04-05 21:13:00,46.3,31.5,29.97,ESE,119,9.0,18.0,56,0.00,,CLR,0.00,VWS V14.01,2013-04-06 02:13:00,
2013-04-05 21:18:00,46.1,31.7,29.97,ESE,117,3.0,18.0,57,0.00,,CLR,0.00,VWS V14.01,2013-04-06 02:18:00,
2013-04-05 21:23:00,45.9,31.1,29.97,ESE,123,9.0,18.0,56,0.00,,CLR,0.00,VWS V14.01,2013-04-06 02:23:00,
2013-04-05 21:28:00,45.7,30.9,29.97,ENE,76,9.0,18.0,56,0.00,,CLR,0.00,VWS V14.01,2013-04-06 02:28:00,
2013-04-05 21:33:00,45.6,31.3,29.96,East,88,9.0,18.0,57,0.00,,CLR,0.00,VWS V14.01,2013-04-06 02:33:00,
2013-04-05 21:39:00,45.5,30.7,29.96,ENE,63,7.0,18.0,56,0.00,,CLR,0.00,VWS V14.01,2013-04-06 02:39:00,
2013-04-05 21:44:00,45.4,31.1,29.96,ENE,67,11.0,18.0,57,0.00,,CLR,0.00,VWS V14.01,2013-04-06 02:44:00,
2013-04-05 21:49:00,45.3,31.0,29.96,ESE,102,11.0,18.0,57,0.00,,CLR,0.00,VWS V14.01,2013-04-06 02:49:00,
2013-04-05 21:54:00,45.3,31.0,29.96,East,92,1.0,18.0,57,0.00,,CLR,0.00,VWS V14.01,2013-04-06 02:54:00,
2013-04-05 21:59:00,45.4,31.1,29.96,ESE,113,5.0,18.0,57,0.00,,CLR,0.00,VWS V14.01,2013-04-06 02:59:00,
2013-04-05 22:05:00,45.3,31.0,29.95,East,90,5.0,13.0,57,0.00,,CLR,0.00,VWS V14.01,2013-04-06 03:05:00,
2013-04-05 22:10:00,45.4,31.1,29.95,East,96,11.0,13.0,57,0.00,,CLR,0.00,VWS V14.01,2013-04-06 03:10:00,
2013-04-05 22:15:00,45.3,31.0,29.95,SE,132,5.0,13.0,57,0.00,,CLR,0.00,VWS V14.01,2013-04-06 03:15:00,
2013-04-05 22:20:00,45.3,31.0,29.94,SE,135,8.0,13.0,57,0.00,,CLR,0.00,VWS V14.01,2013-04-06 03:20:00,
2013-04-05 22:25:00,45.3,31.0,29.94,SE,127,9.0,13.0,57,0.00,,CLR,0.00,VWS V14.01,2013-04-06 03:25:00,
2013-04-05 22:30:00,45.2,30.9,29.94,SE,146,4.0,13.0,57,0.00,,CLR,0.00,VWS V14.01,2013-04-06 03:30:00,
2013-04-05 22:35:00,45.2,30.9,29.94,ENE,67,15.0,16.0,57,0.00,,CLR,0.00,VWS V14.01,2013-04-06 03:35:00,
2013-04-05 22:41:00,45.2,31.3,29.94,ESE,109,5.0,16.0,58,0.00,,CLR,0.00,VWS V14.01,2013-04-06 03:41:00,
2013-04-05 22:46:00,45.1,31.2,29.93,SE,128,3.0,16.0,58,0.00,,CLR,0.00,VWS V14.01,2013-04-06 03:46:00,
2013-04-05 22:51:00,45.1,30.8,29.93,East,80,10.0,16.0,57,0.00,,CLR,0.00,VWS V14.01,2013-04-06 03:51:00,
2013-04-05 22:56:00,45.1,31.2,29.92,East,92,3.0,16.0,58,0.00,,CLR,0.00,VWS V14.01,2013-04-06 03:56:00,
2013-04-05 23:00:00,45.1,31.2,29.92,ESE,109,3.0,16.0,58,0.00,,CLR,0.00,VWS V14.01,2013-04-06 04:00:00,
2013-04-05 23:06:00,45.0,31.1,29.92,SE,127,6.0,12.0,58,0.00,,FEW120,0.00,VWS V14.01,2013-04-06 04:06:00,
2013-04-05 23:11:00,45.0,31.5,29.92,ESE,117,7.0,13.0,59,0.00,,FEW120,0.00,VWS V14.01,2013-04-06 04:11:00,
2013-04-05 23:16:00,45.0,31.1,29.91,SE,130,3.0,14.0,58,0.00,,FEW120,0.00,VWS V14.01,2013-04-06 04:16:00,
2013-04-05 23:21:00,45.2,31.3,29.91,SE,140,12.0,14.0,58,0.00,,FEW120,0.00,VWS V14.01,2013-04-06 04:21:00,
2013-04-05 23:26:00,45.2,31.3,29.91,ESE,120,5.0,14.0,58,0.00,,FEW120,0.00,VWS V14.01,2013-04-06 04:26:00,
2013-04-05 23:31:00,45.2,31.3,29.90,ESE,103,3.0,14.0,58,0.00,,FEW120,0.00,VWS V14.01,2013-04-06 04:31:00,
2013-04-05 23:36:00,45.2,31.3,29.90,ESE,115,10.0,16.0,58,0.00,,FEW120,0.00,VWS V14.01,2013-04-06 04:36:00,
2013-04-05 23:42:00,45.1,31.2,29.90,ESE,117,7.0,16.0,58,0.00,,FEW120,0.00,VWS V14.01,2013-04-06 04:42:00,
2013-04-05 23:47:00,45.3,31.4,29.90,SE,145,5.0,16.0,58,0.00,,FEW120,0.00,VWS V14.01,2013-04-06 04:47:00,
2013-04-05 23:52:00,45.3,31.4,29.90,SSE,157,6.0,16.0,58,0.00,,FEW120,0.00,VWS V14.01,2013-04-06 04:52:00,
2013-04-05 23:57:00,45.3,31.4,29.90,ESE,123,7.0,16.0,58,0.00,,FEW120,0.00,VWS V14.01,2013-04-06 04:57:00,